Weather Roundup
Issued by NWS

Home | Current Version | Previous Version | Graphics & Text | Print | Product List | Glossary Off
Versions: 1 2 3 4 5 6 7 8 9 10 11 12 13 14 15 16 17 18 19 20 21 22 23 24 25 26 27 28 29 30 31 32 33 34 35 36 37 38 39 40 41 42 43 44 45 46 47 48 49 50

933
NZUS93 KARX 062059
HRRWXR

CURRENT HOURLY OBSERVATIONS ACROSS
MUCH OF THE UPPER MISSISSIPPI VALLEY
NATIONAL WEATHER SERVICE LA CROSSE WI
300 PM CST SAT FEB 06 2016


...SOUTHEAST MINNESOTA...


CITY           SKY/WX    TMP DP  RH WIND       PRES   REMARKS
ROCHESTER      CLOUDY    28  25  88 S18       30.03F FOG     WCI  15
ROCHESTER/MAYO CLOUDY    29  27  92 S14G23    30.03F WCI  19
WINONA         CLOUDY    34  28  80 S3        30.07F
AUSTIN         CLOUDY    30  28  93 SW13      30.04S FOG     WCI  20
ALBERT LEA     SUNNY     32  27  80 S13G20    30.01F WCI  22
DODGE CENTER   MOSUNNY   30  27  86 S14G22    30.01F WCI  20
PRESTON        CLOUDY    28  24  87 S16       30.05F FOG     WCI  15
OWATONNA       CLOUDY    32  27  80 S18       29.99F WCI  20
FARIBAULT      PTSUNNY   34  27  75 S9G20     29.98F WCI  26
$$

...ELSEWHERE IN MINNESOTA...


CITY           SKY/WX    TMP DP  RH WIND       PRES   REMARKS
MINNEAPOLIS    CLOUDY    36  26  67 S13G24    29.95F WCI  27
INTNL FALLS    CLOUDY    32  22  66 VRB6      29.73F WCI  26
DULUTH         CLOUDY    34  24  67 SW14      29.81F WCI  25
RED WING       CLOUDY    34  25  69 SW9       30.01F WCI  26
REDWOOD FALLS  CLOUDY    36  26  67 SW20G25   29.88F WCI  25
MANKATO        MOSUNNY   34  27  75 S17       29.96F WCI  23
WORTHINGTON    CLOUDY    34  25  69 S21G26    29.93F WCI  22
FAIRMONT       MOSUNNY   34  27  75 S17       29.96F WCI  23
$$

...SOUTHWEST WISCONSIN...


CITY           SKY/WX    TMP DP  RH WIND       PRES   REMARKS
LA CROSSE      SUNNY     32  24  72 SW16      30.09F WCI  21
PRAIRIE DU CHI MOSUNNY   33  24  70 SW8       30.13F WCI  26
BOSCOBEL       SUNNY     36  25  64 SW10      30.12F WCI  28
LONE ROCK      NOT AVBL
PLATTEVILLE    CLOUDY    32  29  89 SW10      30.13F WCI  23
FORT MC COY    SUNNY     35  24  63 SW7       30.08F WCI  30
VIROQUA        FAIR      32  25  74 SW10      30.07F WCI  24
WIS DELLS      CLOUDY    33  24  71 SW8       30.09F WCI  26
$$

...ELSEWHERE IN WISCONSIN...


CITY           SKY/WX    TMP DP  RH WIND       PRES   REMARKS
MILWAUKEE      CLOUDY    33  26  75 W14G22    30.13F WCI  23
MADISON        PTSUNNY   32  25  75 SW8       30.11F WCI  25
GREEN BAY      CLOUDY    30  24  78 SW9       30.08F WCI  22
EAU CLAIRE     NOT AVBL
BLACK RVR FLS  FAIR      37  22  55 SW6       30.05F WCI  32
MEDFORD        MOSUNNY   30  22  72 S13       29.99F WCI  20
WAUSAU         CLOUDY    33  22  63 SW13      30.00F WCI  24
WIS RAPIDS     SUNNY     33  22  63 SW12      30.06F WCI  24
MARSHFIELD     SUNNY     34  21  59 SW9       30.01F WCI  27
RICE LAKE      CLOUDY    32  23  70 S14       29.98F WCI  22
$$

...NORTHEAST IOWA...


CITY           SKY/WX    TMP DP  RH WIND       PRES   REMARKS
WATERLOO       CLOUDY    30  27  88 SW10      30.12F WCI  21
DUBUQUE        CLOUDY    30  27  88 SW12      30.14S WCI  20
DECORAH        PTSUNNY   28  27  93 SW8G14    30.08F WCI  20
MASON CITY     CLOUDY    29  27  92 SW16      30.07F WCI  17
CHARLES CITY   CLOUDY    28  28 100 S16       30.09F FOG     WCI  17
OELWEIN        CLOUDY    30  30 100 SW12      30.12F WCI  21
$$

...ELSEWHERE IN IOWA...


CITY           SKY/WX    TMP DP  RH WIND       PRES   REMARKS
DES MOINES     MOSUNNY   35  28  75 SW13      30.14F WCI  26
IOWA CITY      PTSUNNY   41  31  67 W10       30.17S
FORT DODGE     CLOUDY    34  27  75 S14       30.07F WCI  24
MARSHALLTOWN   PTSUNNY   31  28  89 SW13      30.12F WCI  21
CEDAR RAPIDS   PTSUNNY   38  32  79 W13       30.14S WCI  30
$$

...NORTHERN ILLINOIS...


CITY           SKY/WX    TMP DP  RH WIND       PRES   REMARKS
CHICAGO-OHARE  MOSUNNY   40  28  62 W16       30.15F WCI  31
CHICAGO-MIDWAY MOSUNNY   42  27  55 SW13      30.17F
MOLINE         SUNNY     44  28  53 SW12      30.14F
ROCKFORD       PTSUNNY   41  26  55 W10       30.16F
PEORIA         SUNNY     47  24  40 SW12      30.18F
$$

NOTE: "FAIR" INDICATES FEW OR NO CLOUDS BELOW 12,000 FEET WITH NO
SIGNIFICANT WEATHER AND/OR OBSTRUCTIONS TO VISIBILITY. WIND
SPEEDS ARE IN MILES-PER-HOUR.




USA.gov is the U.S. government's official web portal to all federal, state and local government web resources and services.